STARLINK-35659 (66385 NORAD) Tracking and Keplerian Element Data

This shows tracking and keplerian element data for the satellite.

Feedback or suggestion? Click here.




ElementValue
Catalog66385
NameSTARLINK-35659
Epoch Orbit747
Epoch Day353.911146
Epoch Year2025
RAAN230.808
Inclination53.1593
Eccentricity0.0001568
Argument of Perigee69.1515
Mean Anonmoly290.9658
Mean Motion15.39627352
Decay Rate0.00021693
L11 66385U 25257F 25353.91114600 .00021693 00000+0 55062-3 0 9990
L22 66385 53.1593 230.8080 0001568 69.1515 290.9658 15.39627352 7474



Live tracking and technical data element details for STARLINK-35659 (NORAD 66385). STARLINK-35659 can be tracked NOW for your location showing map with azimuth and elevation plus other details from your city location.







IsCatalogInMostPopularTable: catalog: 66385, numindb: 20
Update: records affected: 1



GetName: 66385 STARLINK-35659

Hit Count: updated at: Mon, 20 Apr 2026 09:56:15 GMT